Orbital Elements at Epoch 2459200.5 (2020-Dec-17.0) TDB
Reference: JPL 28 (heliocentric ecliptic J2000)
Element | Value | Uncertainty (1-sigma) | Units |
e | .2369139465123558 | 4.0831e-08 | |
a | 2.709569711595628 | 1.2796e-08 | au |
q | 2.067634857871162 | 1.1464e-07 | au |
i | 8.459821500390705 | 3.7931e-06 | deg |
node | 221.9135945662987 | 2.2834e-05 | deg |
peri | 162.7461665574285 | 2.3929e-05 | deg |
M | 336.8737247716998 | 7.6241e-06 | deg |
tp | 2459305.153102918310 (2021-Mar-31.65310292) | 3.4833e-05 | TDB |
period | 1629.104413861146 4.46 | 1.1541e-05 3.16e-08 | d yr |
n | .220980310983728 | 1.5654e-09 | deg/d |
Q | 3.351504565320094 | 1.5828e-08 | au |
|
| | Orbit Determination Parameters
Additional Information
|